Limnos, Greece

5:15 PM EEST on June 24, 2017 (GMT +0300)
Limnos

Weather History for LGLM - January, 2013

Change the Weather History Date:

Monday, January 14, 2013

  Actual Average Record
Temperature  
Mean Temperature 46 °F -  
Max Temperature 56 °F 51 °F 60 °F (1999)
Min Temperature 35 °F 40 °F 32 °F (2015)
Degree Days  
Heating Degree Days 20    
Moisture  
Dew Point 42 °F    
Average Humidity 82    
Maximum Humidity 100    
Minimum Humidity 62    
Precipitation  
Precipitation 0.00 in 0.08 in - ()
Sea Level Pressure  
Sea Level Pressure 30.28 in    
Wind  
Wind Speed 5 mph ()    
Max Wind Speed 14 mph    
Max Gust Speed -    
Visibility 6.2 miles    
Events      
Averages and records for this station are not official NWS values.
T = Trace of Precipitation, MM = Missing Value Source: Averaged Metar Reports

Daily Weather History Graph

Daily Weather History Graph

Search for Another Location

Airport or City:

Trip Planner

Search our weather history database for the weather conditions in past years. The results will help you decide how hot, cold, wet, or windy it might be!

Date:

Astronomy

Jan. 14, 2013 Rise Set
Actual Time 7:39 AM EET 5:17 PM EET
Civil Twilight 7:09 AM EET 5:47 PM EET
Nautical Twilight 6:36 AM EET 6:20 PM EET
Astronomical Twilight 6:03 AM EET 6:53 PM EET
Moon 9:02 AM EET (1/14) 8:41 PM EET (1/14)
Length of Visible Light 10h 37m
Length of Day
9h 38m
Waxing Crescent, 9% of the Moon is Illuminated
Jan 14
Waxing Crescent
Jan 19
First Quarter
Jan 27
Full
Feb 3
Last Quarter
Feb 10
New

Hourly Weather History & Observations

Time (EET) Temp. Windchill Dew Point Humidity Pressure Visibility Wind Dir Wind Speed Gust Speed Precip Events Conditions
12:20 AM 35.6 °F - 33.8 °F 93% 30.27 in - Variable 2.3 mph - N/A   Unknown
12:50 AM 37.4 °F - 35.6 °F 93% 30.27 in - Variable 2.3 mph - N/A   Unknown
1:20 AM 35.6 °F - 33.8 °F 93% 30.27 in - Variable 2.3 mph - N/A   Unknown
1:50 AM 35.6 °F - 33.8 °F 93% 30.27 in - Variable 2.3 mph - N/A   Unknown
2:00 AM 35 °F - 33 °F 90% 30.29 in 6 mi Calm Calm - -   Scattered Clouds
2:20 AM 35.6 °F - 33.8 °F 93% 30.27 in - Variable 2.3 mph - N/A   Unknown
2:50 AM 35.6 °F - 33.8 °F 93% 30.27 in - Variable 2.3 mph - N/A   Unknown
3:20 AM 35.6 °F - 33.8 °F 93% 30.27 in - Variable 1.2 mph - N/A   Unknown
3:50 AM 35.6 °F 32.8 °F 35.6 °F 100% 30.27 in - Variable 3.5 mph - N/A   Unknown
4:20 AM 37.4 °F 34.9 °F 35.6 °F 93% 30.27 in - Variable 3.5 mph - N/A   Unknown
4:50 AM 37.4 °F - 35.6 °F 93% 30.27 in - Variable 1.2 mph - N/A   Unknown
5:20 AM 39.2 °F 37.0 °F 37.4 °F 93% 30.27 in - Variable 3.5 mph - N/A   Unknown
5:50 AM 39.2 °F 37.0 °F 37.4 °F 93% 30.27 in 6.2 mi Variable 3.5 mph - N/A   Scattered Clouds
6:20 AM 37.4 °F 34.9 °F 35.6 °F 93% 30.27 in 6.2 mi Variable 3.5 mph - N/A   Scattered Clouds
6:50 AM 37.4 °F 34.9 °F 37.4 °F 100% 30.30 in 6.2 mi Variable 3.5 mph - N/A   Mostly Cloudy
7:20 AM 39.2 °F 37.0 °F 37.4 °F 93% 30.30 in 6.2 mi Variable 3.5 mph - N/A   Scattered Clouds
7:50 AM 39.2 °F 37.0 °F 37.4 °F 93% 30.30 in 6.2 mi Variable 3.5 mph - N/A   Scattered Clouds
8:00 AM 39 °F - 37 °F 90% 30.32 in 6 mi 3.5 mph - -   Partly Cloudy
8:20 AM 41.0 °F 39.0 °F 39.2 °F 93% 30.30 in 6.2 mi Variable 3.5 mph - N/A   Scattered Clouds
8:50 AM 44.6 °F 41.4 °F 41.0 °F 87% 30.30 in 6.2 mi East 5.8 mph - N/A   Scattered Clouds
9:20 AM 48.2 °F - 42.8 °F 82% 30.30 in 6.2 mi East 5.8 mph - N/A   Scattered Clouds
9:50 AM 51.8 °F - 44.6 °F 76% 30.33 in 6.2 mi East 5.8 mph - N/A   Scattered Clouds
10:20 AM 51.8 °F - 44.6 °F 76% 30.33 in 6.2 mi East 5.8 mph - N/A   Scattered Clouds
10:50 AM 51.8 °F - 46.4 °F 82% 30.30 in 6.2 mi East 6.9 mph - N/A   Scattered Clouds
11:20 AM 51.8 °F - 44.6 °F 76% 30.30 in 6.2 mi SSE 8.1 mph - N/A   Scattered Clouds
11:50 AM 55.4 °F - 46.4 °F 72% 30.30 in 6.2 mi SSE 10.4 mph - N/A   Scattered Clouds
12:20 PM 55.4 °F - 46.4 °F 72% 30.27 in 6.2 mi SSE 12.7 mph - N/A   Scattered Clouds
12:50 PM 55.4 °F - 44.6 °F 67% 30.27 in 6.2 mi SSE 12.7 mph - N/A   Scattered Clouds
1:20 PM 55.4 °F - 44.6 °F 67% 30.27 in 6.2 mi South 12.7 mph - N/A   Mostly Cloudy
1:50 PM 55.4 °F - 46.4 °F 72% 30.27 in 6.2 mi SSE 12.7 mph - N/A   Mostly Cloudy
2:00 PM 55 °F - 46 °F 62% 30.29 in 6 mi SSE 12.7 mph - -   Partly Cloudy
2:20 PM 55.4 °F - 44.6 °F 67% 30.27 in 6.2 mi SSE 12.7 mph - N/A   Mostly Cloudy
2:50 PM 55.4 °F - 46.4 °F 72% 30.27 in 6.2 mi SSE 13.8 mph - N/A   Mostly Cloudy
3:20 PM 55.4 °F - 46.4 °F 72% 30.27 in 6.2 mi SSE 13.8 mph - N/A   Scattered Clouds
3:50 PM 55.4 °F - 46.4 °F 72% 30.27 in 6.2 mi SSE 11.5 mph - N/A   Mostly Cloudy
4:20 PM 55.4 °F - 46.4 °F 72% 30.27 in 6.2 mi SSE 11.5 mph - N/A   Mostly Cloudy
4:50 PM 53.6 °F - 46.4 °F 77% 30.27 in 6.2 mi SSE 10.4 mph - N/A   Mostly Cloudy
5:20 PM 53.6 °F - 46.4 °F 77% 30.27 in 6.2 mi SSE 8.1 mph - N/A   Mostly Cloudy
5:50 PM 51.8 °F - 44.6 °F 76% 30.27 in 6.2 mi SE 4.6 mph - N/A   Mostly Cloudy
6:20 PM 48.2 °F - 44.6 °F 87% 30.27 in 6.2 mi SE 4.6 mph - N/A   Mostly Cloudy
6:50 PM 50.0 °F - 44.6 °F 82% 30.27 in 6.2 mi SE 4.6 mph - N/A   Mostly Cloudy
7:20 PM 51.8 °F - 46.4 °F 82% 30.27 in 6.2 mi SE 6.9 mph - N/A   Mostly Cloudy
7:50 PM 53.6 °F - 46.4 °F 77% 30.27 in 6.2 mi SSE 10.4 mph - N/A   Mostly Cloudy
8:00 PM 53 °F - 46 °F 71% 30.29 in 6 mi SSE 10.4 mph - -   Scattered Clouds
8:20 PM 53.6 °F - 46.4 °F 77% 30.27 in 6.2 mi SSE 10.4 mph - N/A   Mostly Cloudy
8:50 PM 53.6 °F - 46.4 °F 77% 30.27 in - SSE 8.1 mph - N/A   Unknown
9:20 PM 51.8 °F - 46.4 °F 82% 30.27 in - SSE 5.8 mph - N/A   Unknown
9:50 PM 53.6 °F - 46.4 °F 77% 30.27 in 6.2 mi South 8.1 mph - N/A   Scattered Clouds
10:20 PM 51.8 °F - 46.4 °F 82% 30.27 in - SSE 6.9 mph - N/A   Unknown
10:50 PM 51.8 °F - 46.4 °F 82% 30.27 in - SSE 8.1 mph - N/A   Unknown
11:20 PM 53.6 °F - 46.4 °F 77% 30.27 in - SSE 8.1 mph - N/A   Unknown
11:50 PM 53.6 °F - 48.2 °F 82% 30.27 in - SE 8.1 mph - N/A   Unknown